SWR8WP LSZH-EDDF

Flight info

Callsign SWR8WP
Flight time 0h 39m
Altitude 22000
Route DEGES Z1 SUDEN T164 KOVAN T163 SPESA SPESA5B
Aircraft A320/M-SDE3FGHIRWY/LB1

Departure

Time 2026-04-17 12:07
Airport Zürich Airport (LSZH)

Arrival

Time 2026-04-17 12:46
Airport Frankfurt Main Airport (EDDF)
Time Latitude Longitude Altitude Speed Heading
2026-04-17 11:24 47.44834 8.55867 1402 ft 0 kts 245°
2026-04-17 11:25 47.44834 8.55868 1402 ft 0 kts 245°
2026-04-17 12:00 47.44829 8.55852 1397 ft 4 kts 245°
2026-04-17 12:00 47.44814 8.55805 1397 ft 8 kts 245°
2026-04-17 12:00 47.44847 8.55750 1395 ft 9 kts 329°
2026-04-17 12:00 47.44911 8.55706 1399 ft 10 kts 336°
2026-04-17 12:01 47.44953 8.55642 1406 ft 12 kts 275°
2026-04-17 12:01 47.44913 8.55505 1395 ft 17 kts 245°
2026-04-17 12:01 47.44956 8.55395 1398 ft 14 kts 334°
2026-04-17 12:01 47.45096 8.55299 1402 ft 31 kts 335°
2026-04-17 12:02 47.45292 8.55164 1403 ft 31 kts 335°
2026-04-17 12:02 47.45473 8.55086 1398 ft 21 kts 19°
2026-04-17 12:02 47.45610 8.55155 1396 ft 19 kts 17°
2026-04-17 12:02 47.45681 8.55250 1401 ft 12 kts 95°
2026-04-17 12:03 47.45672 8.55393 1403 ft 17 kts 96°
2026-04-17 12:03 47.45663 8.55513 1402 ft 18 kts 96°
2026-04-17 12:03 47.45650 8.55693 1405 ft 18 kts 96°
2026-04-17 12:03 47.45637 8.55874 1411 ft 17 kts 96°
2026-04-17 12:04 47.45624 8.56050 1410 ft 18 kts 96°
2026-04-17 12:04 47.45611 8.56244 1412 ft 20 kts 97°
2026-04-17 12:04 47.45595 8.56470 1414 ft 22 kts 96°
2026-04-17 12:04 47.45583 8.56644 1417 ft 15 kts 95°
2026-04-17 12:05 47.45572 8.56792 1420 ft 15 kts 97°
2026-04-17 12:05 47.45563 8.56946 1420 ft 15 kts 85°
2026-04-17 12:05 47.45625 8.57023 1425 ft 12 kts 359°
2026-04-17 12:05 47.45666 8.56962 1424 ft 9 kts 276°
2026-04-17 12:06 47.45667 8.56949 1424 ft 0 kts 276°
2026-04-17 12:06 47.45673 8.56867 1422 ft 38 kts 276°
2026-04-17 12:06 47.45729 8.56084 1414 ft 111 kts 276°
2026-04-17 12:07 47.45832 8.54656 1432 ft 161 kts 277°
2026-04-17 12:07 47.45942 8.53049 2111 ft 156 kts 278°
2026-04-17 12:07 47.46058 8.51455 2858 ft 156 kts 277°
2026-04-17 12:07 47.46172 8.49864 3505 ft 156 kts 277°
2026-04-17 12:08 47.46214 8.48266 4060 ft 158 kts 255°
2026-04-17 12:08 47.45674 8.46871 4580 ft 158 kts 232°
2026-04-17 12:08 47.45101 8.45457 4991 ft 166 kts 242°
2026-04-17 12:08 47.44364 8.44039 5261 ft 184 kts 213°
2026-04-17 12:09 47.43090 8.43562 5519 ft 203 kts 169°
2026-04-17 12:09 47.41837 8.44635 5747 ft 222 kts 126°
2026-04-17 12:09 47.41312 8.46799 6240 ft 230 kts 97°
2026-04-17 12:09 47.41239 8.49187 6843 ft 235 kts 89°
2026-04-17 12:10 47.41298 8.51614 7403 ft 240 kts 87°
2026-04-17 12:10 47.41379 8.54087 8072 ft 242 kts 87°
2026-04-17 12:10 47.41445 8.56600 8763 ft 246 kts 88°
2026-04-17 12:10 47.41492 8.59141 9461 ft 249 kts 86°
2026-04-17 12:11 47.41929 8.61610 10141 ft 252 kts 59°
2026-04-17 12:11 47.43071 8.63561 10650 ft 258 kts 33°
2026-04-17 12:11 47.44783 8.64548 10904 ft 276 kts
2026-04-17 12:12 47.48885 8.64256 11394 ft 321 kts 360°
2026-04-17 12:12 47.51167 8.64644 11801 ft 337 kts 10°
2026-04-17 12:12 47.53481 8.65366 12495 ft 342 kts 11°
2026-04-17 12:12 47.55825 8.66098 13239 ft 345 kts 11°
2026-04-17 12:13 47.58187 8.66835 13992 ft 348 kts 11°
2026-04-17 12:13 47.60572 8.67575 14644 ft 352 kts 10°
2026-04-17 12:13 47.62978 8.68318 15278 ft 355 kts 10°
2026-04-17 12:13 47.65409 8.69072 15900 ft 359 kts 10°
2026-04-17 12:14 47.67861 8.69837 16514 ft 362 kts 11°
2026-04-17 12:14 47.70342 8.70619 17117 ft 366 kts 10°
2026-04-17 12:14 47.72847 8.71407 17722 ft 370 kts 10°
2026-04-17 12:14 47.75385 8.72201 18327 ft 374 kts 10°
2026-04-17 12:15 47.77940 8.72995 18866 ft 377 kts 10°
2026-04-17 12:15 47.80522 8.73797 19417 ft 380 kts 10°
2026-04-17 12:15 47.83118 8.74611 19977 ft 382 kts 10°
2026-04-17 12:15 47.85696 8.75424 20535 ft 385 kts 10°
2026-04-17 12:16 47.88321 8.76252 21098 ft 387 kts 10°
2026-04-17 12:16 47.90961 8.77086 21659 ft 389 kts 10°
2026-04-17 12:16 47.93622 8.77926 22099 ft 392 kts 10°
2026-04-17 12:16 47.96285 8.78766 22205 ft 387 kts 10°
2026-04-17 12:17 47.98895 8.79592 22221 ft 381 kts 10°
2026-04-17 12:17 48.01485 8.80411 22220 ft 380 kts 10°
2026-04-17 12:17 48.04066 8.81224 22219 ft 379 kts 10°
2026-04-17 12:17 48.06651 8.82036 22221 ft 379 kts 10°
2026-04-17 12:18 48.09230 8.82849 22221 ft 379 kts 10°
2026-04-17 12:18 48.11814 8.83667 22223 ft 379 kts 10°
2026-04-17 12:18 48.14396 8.84486 22218 ft 379 kts 10°
2026-04-17 12:18 48.16978 8.85306 22218 ft 379 kts 10°
2026-04-17 12:19 48.19556 8.86123 22219 ft 379 kts 10°
2026-04-17 12:19 48.22136 8.86942 22219 ft 379 kts 10°
2026-04-17 12:19 48.24718 8.87765 22221 ft 379 kts 10°
2026-04-17 12:19 48.27300 8.88585 22221 ft 379 kts 10°
2026-04-17 12:20 48.29882 8.89407 22216 ft 379 kts 10°
2026-04-17 12:20 48.32460 8.90231 22222 ft 379 kts 10°
2026-04-17 12:20 48.35043 8.91062 22223 ft 379 kts 10°
2026-04-17 12:20 48.37622 8.91888 22223 ft 379 kts 10°
2026-04-17 12:21 48.40197 8.92713 22219 ft 379 kts 10°
2026-04-17 12:21 48.42780 8.93546 22219 ft 379 kts 10°
2026-04-17 12:21 48.45361 8.94377 22220 ft 379 kts 10°
2026-04-17 12:21 48.47935 8.95203 22215 ft 379 kts 10°
2026-04-17 12:22 48.50509 8.96029 22216 ft 379 kts 10°
2026-04-17 12:22 48.53090 8.96857 22206 ft 379 kts 10°
2026-04-17 12:22 48.55670 8.97685 22205 ft 379 kts 10°
2026-04-17 12:22 48.58250 8.98518 22202 ft 379 kts 10°
2026-04-17 12:23 48.60792 8.99342 22203 ft 379 kts 10°
2026-04-17 12:23 48.63397 9.00188 22202 ft 379 kts 10°
2026-04-17 12:23 48.65977 9.01024 22198 ft 378 kts 10°
2026-04-17 12:23 48.68551 9.01864 22199 ft 378 kts 10°
2026-04-17 12:24 48.71127 9.02710 22199 ft 378 kts 10°
2026-04-17 12:24 48.73699 9.03561 22205 ft 378 kts 10°
2026-04-17 12:24 48.76266 9.04418 22202 ft 378 kts 11°
2026-04-17 12:24 48.78840 9.05284 22201 ft 378 kts 11°
2026-04-17 12:25 48.81409 9.06145 22200 ft 378 kts 10°
2026-04-17 12:25 48.83947 9.06991 22199 ft 378 kts 10°
2026-04-17 12:25 48.86559 9.07865 22199 ft 378 kts 11°
2026-04-17 12:25 48.89142 9.08574 22200 ft 377 kts
2026-04-17 12:26 48.91753 9.08949 22200 ft 377 kts
2026-04-17 12:26 48.94340 9.09311 21975 ft 369 kts
2026-04-17 12:26 48.96870 9.09666 21722 ft 361 kts
2026-04-17 12:26 48.99349 9.10017 21471 ft 356 kts
2026-04-17 12:27 49.01794 9.10367 21162 ft 351 kts
2026-04-17 12:27 49.04221 9.10711 20729 ft 349 kts
2026-04-17 12:27 49.06604 9.11050 20293 ft 348 kts
2026-04-17 12:27 49.09040 9.11401 19849 ft 347 kts
2026-04-17 12:28 49.11413 9.11741 19400 ft 346 kts
2026-04-17 12:28 49.13840 9.12085 18967 ft 345 kts
2026-04-17 12:28 49.16201 9.12424 18537 ft 345 kts
2026-04-17 12:28 49.18593 9.12767 18066 ft 344 kts
2026-04-17 12:29 49.20980 9.13108 17630 ft 343 kts
2026-04-17 12:29 49.23345 9.13440 17211 ft 341 kts
2026-04-17 12:29 49.25700 9.13769 16793 ft 339 kts
2026-04-17 12:29 49.28050 9.14104 16372 ft 338 kts
2026-04-17 12:30 49.30382 9.14438 15951 ft 336 kts
2026-04-17 12:30 49.32708 9.14767 15553 ft 335 kts
2026-04-17 12:30 49.35029 9.15095 15147 ft 334 kts
2026-04-17 12:30 49.37339 9.15426 14743 ft 334 kts
2026-04-17 12:31 49.39646 9.15758 14333 ft 333 kts
2026-04-17 12:31 49.41949 9.16091 13905 ft 332 kts
2026-04-17 12:31 49.44243 9.16425 13479 ft 330 kts
2026-04-17 12:31 49.46517 9.16754 13067 ft 328 kts
2026-04-17 12:32 49.48776 9.17076 12765 ft 322 kts
2026-04-17 12:32 49.50958 9.17391 12416 ft 310 kts
2026-04-17 12:32 49.53094 9.17696 11760 ft 306 kts
2026-04-17 12:32 49.55180 9.17978 11412 ft 292 kts
2026-04-17 12:33 49.57151 9.18246 11048 ft 280 kts
2026-04-17 12:33 49.59088 9.18504 10720 ft 278 kts
2026-04-17 12:33 49.61010 9.18745 10421 ft 276 kts
2026-04-17 12:33 49.62944 9.18981 10219 ft 282 kts
2026-04-17 12:34 49.64913 9.19219 10217 ft 285 kts
2026-04-17 12:34 49.66896 9.19458 10218 ft 286 kts
2026-04-17 12:34 49.68858 9.19690 10217 ft 287 kts
2026-04-17 12:34 49.70839 9.19540 10187 ft 285 kts 348°
2026-04-17 12:35 49.72761 9.18796 9938 ft 284 kts 344°
2026-04-17 12:35 49.74666 9.17973 9667 ft 284 kts 344°
2026-04-17 12:35 49.76565 9.17143 9404 ft 284 kts 344°
2026-04-17 12:35 49.78488 9.16299 9138 ft 283 kts 344°
2026-04-17 12:37 49.91552 9.10633 6925 ft 271 kts 344°
2026-04-17 12:37 49.93363 9.09860 6607 ft 269 kts 344°
2026-04-17 12:38 49.95158 9.09101 6279 ft 267 kts 344°
2026-04-17 12:38 49.96951 9.08346 5942 ft 266 kts 344°
2026-04-17 12:38 49.98733 9.07601 5607 ft 264 kts 344°
2026-04-17 12:38 50.00509 9.06864 5267 ft 263 kts 344°
2026-04-17 12:39 50.02276 9.06136 4915 ft 262 kts 344°
2026-04-17 12:39 50.04034 9.05410 4553 ft 260 kts 344°
2026-04-17 12:39 50.05777 9.04684 4300 ft 259 kts 344°
2026-04-17 12:39 50.07489 9.03957 4081 ft 257 kts 340°
2026-04-17 12:40 50.08983 9.02506 3996 ft 253 kts 309°
2026-04-17 12:40 50.09813 9.00189 3994 ft 234 kts 287°
2026-04-17 12:40 50.10277 8.97893 4002 ft 217 kts 284°
2026-04-17 12:40 50.10694 8.95669 3999 ft 212 kts 284°
2026-04-17 12:41 50.11103 8.93475 4006 ft 210 kts 284°
2026-04-17 12:41 50.11424 8.91268 3999 ft 205 kts 270°
2026-04-17 12:41 50.11217 8.89149 4001 ft 197 kts 249°
2026-04-17 12:41 50.10744 8.87150 4047 ft 196 kts 249°
2026-04-17 12:42 50.10273 8.85147 3897 ft 197 kts 249°
2026-04-17 12:42 50.09804 8.83154 3636 ft 195 kts 249°
2026-04-17 12:42 50.09334 8.81156 3387 ft 196 kts 249°
2026-04-17 12:42 50.08868 8.79181 3116 ft 193 kts 249°
2026-04-17 12:43 50.08411 8.77244 2859 ft 189 kts 249°
2026-04-17 12:43 50.07961 8.75337 2611 ft 186 kts 249°
2026-04-17 12:43 50.07526 8.73500 2357 ft 174 kts 249°
2026-04-17 12:43 50.07127 8.71813 2137 ft 159 kts 249°
2026-04-17 12:44 50.06753 8.70233 1936 ft 150 kts 249°
2026-04-17 12:44 50.06399 8.68738 1736 ft 147 kts 249°
2026-04-17 12:44 50.06045 8.67246 1536 ft 147 kts 249°
2026-04-17 12:44 50.05707 8.65740 1329 ft 147 kts 250°
2026-04-17 12:45 50.05364 8.64245 1153 ft 147 kts 249°
2026-04-17 12:45 50.04998 8.62748 954 ft 148 kts 249°
2026-04-17 12:45 50.04629 8.61244 754 ft 150 kts 250°
2026-04-17 12:45 50.04391 8.60239 627 ft 150 kts 251°
2026-04-17 12:46 50.04027 8.58716 420 ft 150 kts 250°
2026-04-17 12:46 50.03681 8.57289 356 ft 123 kts 249°
2026-04-17 12:46 50.03471 8.56414 357 ft 41 kts 250°
2026-04-17 12:46 50.03437 8.56107 352 ft 26 kts 267°
2026-04-17 12:47 50.03455 8.55893 345 ft 16 kts 279°
2026-04-17 12:47 50.03461 8.55842 348 ft 0 kts 280°
2026-04-17 12:47 50.03462 8.55830 350 ft 6 kts 281°
2026-04-17 12:47 50.03493 8.55710 350 ft 14 kts 335°
2026-04-17 12:48 50.03562 8.55768 347 ft 12 kts 65°
2026-04-17 12:48 50.03594 8.55896 357 ft 14 kts 69°
2026-04-17 12:48 50.03631 8.56056 352 ft 19 kts 70°
2026-04-17 12:48 50.03680 8.56256 359 ft 21 kts 69°
2026-04-17 12:49 50.03732 8.56473 356 ft 22 kts 69°
2026-04-17 12:49 50.03787 8.56705 357 ft 23 kts 70°
2026-04-17 12:49 50.03842 8.56937 356 ft 22 kts 69°
2026-04-17 12:49 50.03895 8.57159 365 ft 22 kts 70°
2026-04-17 12:50 50.03947 8.57374 363 ft 21 kts 69°
2026-04-17 12:50 50.03998 8.57587 368 ft 21 kts 69°
2026-04-17 12:50 50.04051 8.57810 367 ft 22 kts 69°
2026-04-17 12:50 50.04106 8.58036 371 ft 23 kts 69°
2026-04-17 12:51 50.04162 8.58272 370 ft 24 kts 69°
2026-04-17 12:51 50.04220 8.58512 370 ft 23 kts 70°
2026-04-17 12:51 50.04275 8.58743 372 ft 23 kts 69°
2026-04-17 12:51 50.04330 8.58971 376 ft 22 kts 69°
2026-04-17 12:52 50.04386 8.59198 376 ft 23 kts 69°
2026-04-17 12:52 50.04438 8.59422 376 ft 19 kts 66°
2026-04-17 12:52 50.04537 8.59468 374 ft 13 kts 358°
2026-04-17 12:52 50.04586 8.59467 373 ft 0 kts 359°
2026-04-17 12:53 50.04587 8.59467 373 ft 1 kts 359°
2026-04-17 12:53 50.04634 8.59462 372 ft 10 kts 353°
2026-04-17 12:53 50.04730 8.59428 372 ft 17 kts 338°
2026-04-17 12:54 50.04844 8.59361 373 ft 19 kts 344°
2026-04-17 12:54 50.04982 8.59306 365 ft 21 kts 340°
2026-04-17 12:54 50.05050 8.59177 360 ft 18 kts 250°
2026-04-17 12:54 50.05005 8.58989 360 ft 19 kts 249°
2026-04-17 12:55 50.04956 8.58786 362 ft 21 kts 249°
2026-04-17 12:55 50.04905 8.58569 361 ft 22 kts 249°
2026-04-17 12:55 50.04853 8.58355 363 ft 22 kts 250°
2026-04-17 12:55 50.04800 8.58132 365 ft 22 kts 249°
2026-04-17 12:56 50.04735 8.57938 364 ft 20 kts 218°
2026-04-17 12:56 50.04675 8.57761 359 ft 20 kts 249°
2026-04-17 12:56 50.04623 8.57544 360 ft 23 kts 249°
2026-04-17 12:56 50.04565 8.57305 359 ft 24 kts 249°
2026-04-17 12:57 50.04508 8.57059 360 ft 22 kts 249°
2026-04-17 12:57 50.04451 8.56827 365 ft 23 kts 250°
2026-04-17 12:57 50.04394 8.56585 359 ft 21 kts 249°
2026-04-17 12:57 50.04340 8.56355 359 ft 23 kts 249°
2026-04-17 12:58 50.04291 8.56139 357 ft 18 kts 263°
2026-04-17 12:58 50.04370 8.56039 356 ft 12 kts 340°
2026-04-17 12:58 50.04443 8.56080 356 ft 13 kts 73°
2026-04-17 12:58 50.04460 8.56186 356 ft 8 kts 119°
2026-04-17 12:59 50.04417 8.56214 359 ft 3 kts 160°
2026-04-17 12:59 50.04403 8.56222 360 ft 1 kts 160°